User: anonymous   Login
Location: Unspecified
(0.0000°N, 0.0000°E)
Time: 04:11:48
(UTC+00:00)
Language:

STARLINK-31727 - Orbit

View from above orbital plane
View from above orbital plane
View from above satellite
View from above satellite

Ground track
Ground track

The orbit is defined by the following mean orbital elements,

1 59638U          26145.49438007 +.00000000 +00000-0 -25709-4 0 00005
2 59638  43.0026  66.4463 0000951 274.0958  85.9785 15.27584569    01
Epoch (UTC): 25 May 2026 11:51:54
Eccentricity: 0.0000951
inclination: 43.0026°
perigee height: 482 km
apogee height: 484 km
right ascension of ascending node: 66.4463°
argument of perigee: 274.0958°
revolutions per day: 15.27584569
mean anomaly at epoch: 85.9785°

The dashed part of the orbit path shows where the satellite is in the earth's shadow,  

DLR